Time,TemperatureF,DewpointF,PressureIn,WindDirection,WindDirectionDegrees,WindSpeedMPH,WindSpeedGustMPH,Humidity,HourlyPrecipIn,Conditions,Clouds,dailyrainin,SoftwareType,DateUTC
2013-05-26 00:01:00,57.0,43.0,28.80,North,355,0.0,3.0,59,0.00,,,0.00,,2013-05-26 07:01:00,
2013-05-26 00:11:00,57.0,43.0,28.80,North,355,0.0,3.0,59,0.00,,,0.00,,2013-05-26 07:11:00,
2013-05-26 00:21:00,57.0,42.0,28.80,NW,319,1.0,7.0,58,0.00,,,0.00,,2013-05-26 07:21:00,
2013-05-26 00:31:00,57.0,42.0,28.80,NNW,340,3.0,8.0,58,0.00,,,0.00,,2013-05-26 07:31:00,
2013-05-26 00:42:00,57.0,42.0,28.80,NNW,340,3.0,8.0,58,0.00,,,0.00,,2013-05-26 07:42:00,
2013-05-26 00:52:00,57.0,42.0,28.80,NW,304,1.0,5.0,58,0.00,,,0.00,,2013-05-26 07:52:00,
2013-05-26 01:01:00,57.0,42.0,28.81,NNW,327,0.0,4.0,58,0.00,,,0.00,,2013-05-26 08:01:00,
2013-05-26 01:11:00,57.0,42.0,28.81,NNW,327,0.0,4.0,58,0.00,,,0.00,,2013-05-26 08:11:00,
2013-05-26 01:21:00,57.0,43.0,28.81,NW,319,2.0,10.0,60,0.00,,,0.00,,2013-05-26 08:21:00,
2013-05-26 01:31:00,56.0,43.0,28.81,NW,309,0.0,3.0,61,0.00,,,0.00,,2013-05-26 08:31:00,
2013-05-26 01:41:00,56.0,43.0,28.81,NW,309,0.0,3.0,61,0.00,,,0.00,,2013-05-26 08:41:00,
2013-05-26 01:53:00,56.0,43.0,28.81,WNW,298,0.0,2.0,62,0.00,,,0.00,,2013-05-26 08:53:00,
2013-05-26 02:01:00,55.0,43.0,28.81,WNW,286,2.0,11.0,65,0.00,,,0.00,,2013-05-26 09:01:00,
2013-05-26 02:11:00,55.0,43.0,28.81,WNW,286,2.0,11.0,65,0.00,,,0.00,,2013-05-26 09:11:00,
2013-05-26 02:21:00,55.0,44.0,28.81,NW,321,2.0,6.0,67,0.00,,,0.00,,2013-05-26 09:21:00,
2013-05-26 02:33:00,55.0,45.0,28.81,WNW,296,1.0,8.0,68,0.00,,,0.00,,2013-05-26 09:33:00,
2013-05-26 02:42:00,55.0,45.0,28.81,WNW,296,1.0,8.0,68,0.00,,,0.00,,2013-05-26 09:42:00,
2013-05-26 02:53:00,55.0,45.0,28.81,NNE,17,2.0,5.0,69,0.00,,,0.00,,2013-05-26 09:53:00,
2013-05-26 03:02:00,55.0,45.0,28.81,North,355,2.0,8.0,70,0.00,,,0.00,,2013-05-26 10:02:00,
2013-05-26 03:12:00,55.0,45.0,28.81,North,355,2.0,8.0,70,0.00,,,0.00,,2013-05-26 10:12:00,
2013-05-26 03:22:00,55.0,45.0,28.81,North,5,1.0,5.0,70,0.00,,,0.00,,2013-05-26 10:22:00,
2013-05-26 03:32:00,55.0,45.0,28.81,North,355,1.0,5.0,70,0.00,,,0.00,,2013-05-26 10:32:00,
2013-05-26 03:42:00,55.0,45.0,28.81,North,355,1.0,5.0,70,0.00,,,0.00,,2013-05-26 10:42:00,
2013-05-26 03:52:00,55.0,46.0,28.81,North,351,0.0,5.0,71,0.00,,,0.00,,2013-05-26 10:52:00,
2013-05-26 04:02:00,54.0,45.0,28.81,North,355,0.0,4.0,71,0.00,,,0.00,,2013-05-26 11:02:00,
2013-05-26 04:11:00,54.0,45.0,28.81,North,355,0.0,4.0,71,0.00,,,0.00,,2013-05-26 11:11:00,
2013-05-26 04:22:00,55.0,46.0,28.82,North,9,1.0,3.0,71,0.00,,,0.00,,2013-05-26 11:22:00,
2013-05-26 04:32:00,54.0,45.0,28.81,North,9,0.0,4.0,71,0.00,,,0.00,,2013-05-26 11:32:00,
2013-05-26 04:42:00,54.0,45.0,28.81,North,9,0.0,4.0,71,0.00,,,0.00,,2013-05-26 11:42:00,
2013-05-26 04:52:00,54.0,45.0,28.82,North,9,0.0,3.0,72,0.00,,,0.00,,2013-05-26 11:52:00,
2013-05-26 05:01:00,54.0,46.0,28.82,NNE,32,1.0,3.0,73,0.00,,,0.00,,2013-05-26 12:01:00,
2013-05-26 05:11:00,54.0,46.0,28.82,NNE,32,1.0,3.0,73,0.00,,,0.00,,2013-05-26 12:11:00,
2013-05-26 05:21:00,54.0,46.0,28.82,ENE,61,1.0,2.0,73,0.00,,,0.00,,2013-05-26 12:21:00,
2013-05-26 05:31:00,53.0,45.0,28.82,NW,311,0.0,3.0,74,0.00,,,0.00,,2013-05-26 12:31:00,
2013-05-26 05:41:00,53.0,45.0,28.82,NW,311,0.0,3.0,74,0.00,,,0.00,,2013-05-26 12:41:00,
2013-05-26 05:52:00,53.0,45.0,28.83,NNW,329,0.0,2.0,74,0.00,,,0.00,,2013-05-26 12:52:00,
2013-05-26 06:02:00,53.0,45.0,28.83,NNW,329,0.0,2.0,74,0.00,,,0.00,,2013-05-26 13:02:00,
2013-05-26 06:11:00,53.0,45.0,28.83,NNW,329,0.0,2.0,74,0.00,,,0.00,,2013-05-26 13:11:00,
2013-05-26 06:21:00,53.0,45.0,28.83,NW,315,0.0,1.0,74,0.00,,,0.00,,2013-05-26 13:21:00,
2013-05-26 06:32:00,53.0,45.0,28.83,NW,315,0.0,1.0,74,0.00,,,0.00,,2013-05-26 13:32:00,
2013-05-26 06:42:00,53.0,45.0,28.83,NW,315,0.0,1.0,74,0.00,,,0.00,,2013-05-26 13:42:00,
2013-05-26 06:52:00,53.0,45.0,28.84,NW,311,1.0,6.0,75,0.00,,,0.00,,2013-05-26 13:52:00,
2013-05-26 07:01:00,54.0,46.0,28.84,NW,318,2.0,8.0,75,0.00,,,0.00,,2013-05-26 14:01:00,
2013-05-26 07:11:00,54.0,46.0,28.84,NW,318,2.0,8.0,75,0.00,,,0.00,,2013-05-26 14:11:00,
2013-05-26 07:21:00,54.0,46.0,28.84,NNW,327,0.0,3.0,75,0.00,,,0.00,,2013-05-26 14:21:00,
2013-05-26 07:32:00,54.0,47.0,28.84,NNW,336,0.0,6.0,76,0.00,,,0.00,,2013-05-26 14:32:00,
2013-05-26 07:41:00,54.0,47.0,28.84,NNW,336,0.0,6.0,76,0.00,,,0.00,,2013-05-26 14:41:00,
2013-05-26 07:51:00,54.0,47.0,28.84,SSE,166,0.0,3.0,77,0.00,,,0.00,,2013-05-26 14:51:00,
2013-05-26 08:01:00,56.0,47.0,28.85,North,355,1.0,5.0,71,0.00,,,0.00,,2013-05-26 15:01:00,
2013-05-26 08:12:00,56.0,47.0,28.85,North,355,1.0,5.0,71,0.00,,,0.00,,2013-05-26 15:12:00,
2013-05-26 08:22:00,57.0,47.0,28.85,NNW,332,2.0,7.0,68,0.00,,,0.00,,2013-05-26 15:22:00,
2013-05-26 08:33:00,58.0,47.0,28.86,WNW,298,1.0,8.0,66,0.00,,,0.00,,2013-05-26 15:33:00,
2013-05-26 08:43:00,58.0,47.0,28.86,WNW,298,1.0,8.0,66,0.00,,,0.00,,2013-05-26 15:43:00,
2013-05-26 08:53:00,59.0,46.0,28.86,North,5,2.0,6.0,63,0.00,,,0.00,,2013-05-26 15:53:00,
2013-05-26 09:03:00,61.0,47.0,28.86,WNW,299,1.0,7.0,60,0.00,,,0.00,,2013-05-26 16:03:00,
2013-05-26 09:12:00,61.0,47.0,28.86,WNW,299,1.0,7.0,60,0.00,,,0.00,,2013-05-26 16:12:00,
2013-05-26 09:23:00,62.0,47.0,28.86,WSW,251,2.0,7.0,57,0.00,,,0.00,,2013-05-26 16:23:00,
2013-05-26 09:33:00,64.0,47.0,28.86,NNE,23,1.0,6.0,55,0.00,,,0.00,,2013-05-26 16:33:00,
2013-05-26 09:42:00,64.0,47.0,28.86,NNE,23,1.0,6.0,55,0.00,,,0.00,,2013-05-26 16:42:00,
2013-05-26 09:52:00,65.0,47.0,28.87,NNW,344,2.0,7.0,52,0.00,,,0.00,,2013-05-26 16:52:00,
2013-05-26 10:02:00,66.0,47.0,28.86,SSW,209,2.0,7.0,50,0.00,,,0.00,,2013-05-26 17:02:00,
2013-05-26 10:11:00,66.0,47.0,28.86,SSW,209,2.0,7.0,50,0.00,,,0.00,,2013-05-26 17:11:00,
2013-05-26 10:22:00,67.0,45.0,28.86,NW,323,2.0,8.0,45,0.00,,,0.00,,2013-05-26 17:22:00,
2013-05-26 10:32:00,68.0,46.0,28.86,NNW,346,4.0,13.0,45,0.00,,,0.00,,2013-05-26 17:32:00,
2013-05-26 10:42:00,68.0,46.0,28.86,NNW,346,4.0,13.0,45,0.00,,,0.00,,2013-05-26 17:42:00,
2013-05-26 10:52:00,69.0,46.0,28.86,NNW,338,2.0,11.0,44,0.00,,,0.00,,2013-05-26 17:52:00,
2013-05-26 11:01:00,70.0,47.0,28.86,NW,306,1.0,10.0,44,0.00,,,0.00,,2013-05-26 18:01:00,
2013-05-26 11:12:00,70.0,47.0,28.86,NW,306,1.0,10.0,44,0.00,,,0.00,,2013-05-26 18:12:00,
2013-05-26 11:21:00,70.0,46.0,28.87,West,278,1.0,4.0,43,0.00,,,0.00,,2013-05-26 18:21:00,
2013-05-26 11:31:00,72.0,46.0,28.87,NW,325,3.0,8.0,39,0.00,,,0.00,,2013-05-26 18:31:00,
2013-05-26 11:42:00,72.0,46.0,28.87,NW,325,3.0,8.0,39,0.00,,,0.00,,2013-05-26 18:42:00,
2013-05-26 11:52:00,73.0,46.0,28.87,SSW,198,2.0,6.0,38,0.00,,,0.00,,2013-05-26 18:52:00,
2013-05-26 12:01:00,71.0,45.0,28.87,WSW,250,2.0,5.0,39,0.00,,,0.00,,2013-05-26 19:01:00,
2013-05-26 12:11:00,71.0,45.0,28.87,WSW,250,2.0,5.0,39,0.00,,,0.00,,2013-05-26 19:11:00,
2013-05-26 12:21:00,72.0,45.0,28.87,WSW,238,2.0,10.0,38,0.00,,,0.00,,2013-05-26 19:21:00,
2013-05-26 12:32:00,73.0,44.0,28.86,WSW,250,1.0,7.0,36,0.00,,,0.00,,2013-05-26 19:32:00,
2013-05-26 12:42:00,73.0,44.0,28.86,WSW,250,1.0,7.0,36,0.00,,,0.00,,2013-05-26 19:42:00,
2013-05-26 12:52:00,73.0,45.0,28.87,NW,315,1.0,9.0,37,0.00,,,0.00,,2013-05-26 19:52:00,
2013-05-26 13:02:00,72.0,44.0,28.86,WNW,289,1.0,4.0,36,0.00,,,0.00,,2013-05-26 20:02:00,
2013-05-26 13:11:00,72.0,44.0,28.86,WNW,289,1.0,4.0,36,0.00,,,0.00,,2013-05-26 20:11:00,
2013-05-26 13:21:00,74.0,43.0,28.86,WNW,282,1.0,4.0,33,0.00,,,0.00,,2013-05-26 20:21:00,
2013-05-26 13:32:00,73.0,43.0,28.86,WSW,248,2.0,5.0,34,0.00,,,0.00,,2013-05-26 20:32:00,
2013-05-26 13:41:00,73.0,43.0,28.86,WSW,248,2.0,5.0,34,0.00,,,0.00,,2013-05-26 20:41:00,
2013-05-26 13:52:00,75.0,43.0,28.86,SW,217,0.0,4.0,32,0.00,,,0.00,,2013-05-26 20:52:00,
2013-05-26 14:01:00,77.0,44.0,28.86,WSW,237,2.0,4.0,31,0.00,,,0.00,,2013-05-26 21:01:00,
2013-05-26 14:11:00,77.0,44.0,28.86,WSW,237,2.0,4.0,31,0.00,,,0.00,,2013-05-26 21:11:00,
2013-05-26 14:22:00,75.0,41.0,28.85,SW,215,2.0,11.0,30,0.00,,,0.00,,2013-05-26 21:22:00,
2013-05-26 14:33:00,79.0,43.0,28.85,SW,234,2.0,5.0,28,0.00,,,0.00,,2013-05-26 21:33:00,
2013-05-26 14:43:00,79.0,43.0,28.85,SW,234,2.0,5.0,28,0.00,,,0.00,,2013-05-26 21:43:00,
2013-05-26 14:53:00,80.0,42.0,28.85,WNW,302,3.0,10.0,26,0.00,,,0.00,,2013-05-26 21:53:00,
2013-05-26 15:02:00,77.0,40.0,28.84,North,355,2.0,6.0,27,0.00,,,0.00,,2013-05-26 22:02:00,
2013-05-26 15:12:00,77.0,40.0,28.84,North,355,2.0,6.0,27,0.00,,,0.00,,2013-05-26 22:12:00,
2013-05-26 15:23:00,78.0,41.0,28.85,NW,306,1.0,6.0,27,0.00,,,0.00,,2013-05-26 22:23:00,
2013-05-26 15:33:00,78.0,41.0,28.84,West,273,2.0,8.0,27,0.00,,,0.00,,2013-05-26 22:33:00,
2013-05-26 15:42:00,78.0,40.0,28.84,SW,220,2.0,9.0,26,0.00,,,0.00,,2013-05-26 22:42:00,
2013-05-26 15:53:00,78.0,40.0,28.84,SW,220,2.0,9.0,26,0.00,,,0.00,,2013-05-26 22:53:00,
2013-05-26 16:02:00,77.0,40.0,28.84,West,261,2.0,5.0,27,0.00,,,0.00,,2013-05-26 23:02:00,
2013-05-26 16:11:00,77.0,40.0,28.84,West,261,2.0,5.0,27,0.00,,,0.00,,2013-05-26 23:11:00,
2013-05-26 16:22:00,78.0,40.0,28.84,NNE,22,1.0,9.0,26,0.00,,,0.00,,2013-05-26 23:22:00,
2013-05-26 16:32:00,79.0,41.0,28.83,NW,310,0.0,9.0,26,0.00,,,0.00,,2013-05-26 23:32:00,
2013-05-26 16:42:00,79.0,41.0,28.83,NW,310,0.0,9.0,26,0.00,,,0.00,,2013-05-26 23:42:00,
2013-05-26 16:51:00,78.0,39.0,28.83,WNW,296,1.0,10.0,25,0.00,,,0.00,,2013-05-26 23:51:00,
2013-05-26 17:02:00,78.0,41.0,28.83,NW,324,2.0,6.0,27,0.00,,,0.00,,2013-05-27 00:02:00,
2013-05-26 17:11:00,78.0,41.0,28.83,NW,324,2.0,6.0,27,0.00,,,0.00,,2013-05-27 00:11:00,
2013-05-26 17:21:00,77.0,41.0,28.83,NW,308,0.0,7.0,28,0.00,,,0.00,,2013-05-27 00:21:00,
2013-05-26 17:31:00,75.0,41.0,28.82,WSW,256,2.0,5.0,29,0.00,,,0.00,,2013-05-27 00:31:00,
2013-05-26 17:41:00,75.0,41.0,28.82,WSW,256,2.0,5.0,29,0.00,,,0.00,,2013-05-27 00:41:00,
2013-05-26 17:52:00,74.0,41.0,28.82,SW,229,3.0,6.0,30,0.00,,,0.00,,2013-05-27 00:52:00,
2013-05-26 18:01:00,73.0,41.0,28.82,SW,230,3.0,5.0,31,0.00,,,0.00,,2013-05-27 01:01:00,
2013-05-26 18:11:00,73.0,41.0,28.82,SW,230,3.0,5.0,31,0.00,,,0.00,,2013-05-27 01:11:00,
2013-05-26 18:22:00,72.0,40.0,28.82,SW,230,2.0,5.0,31,0.00,,,0.00,,2013-05-27 01:22:00,
2013-05-26 18:31:00,72.0,41.0,28.82,SW,228,2.0,5.0,32,0.00,,,0.00,,2013-05-27 01:31:00,
2013-05-26 18:42:00,71.0,40.0,28.82,SW,225,1.0,6.0,32,0.00,,,0.00,,2013-05-27 01:42:00,
2013-05-26 18:52:00,71.0,40.0,28.82,SW,225,1.0,6.0,32,0.00,,,0.00,,2013-05-27 01:52:00,
2013-05-26 19:01:00,71.0,40.0,28.82,SW,232,1.0,4.0,32,0.00,,,0.00,,2013-05-27 02:01:00,
2013-05-26 19:11:00,71.0,40.0,28.82,SW,232,1.0,4.0,32,0.00,,,0.00,,2013-05-27 02:11:00,
2013-05-26 19:21:00,70.0,40.0,28.82,SW,216,1.0,5.0,33,0.00,,,0.00,,2013-05-27 02:21:00,
2013-05-26 19:32:00,70.0,42.0,28.82,SW,222,0.0,4.0,36,0.00,,,0.00,,2013-05-27 02:32:00,
2013-05-26 19:42:00,70.0,42.0,28.82,SW,222,0.0,4.0,36,0.00,,,0.00,,2013-05-27 02:42:00,
2013-05-26 19:52:00,69.0,41.0,28.82,West,271,0.0,3.0,36,0.00,,,0.00,,2013-05-27 02:52:00,
2013-05-26 20:02:00,68.0,41.0,28.83,NW,308,0.0,6.0,37,0.00,,,0.00,,2013-05-27 03:02:00,
2013-05-26 20:11:00,68.0,41.0,28.83,NW,308,0.0,6.0,37,0.00,,,0.00,,2013-05-27 03:11:00,
2013-05-26 20:21:00,67.0,41.0,28.84,WNW,291,0.0,3.0,38,0.00,,,0.00,,2013-05-27 03:21:00,
2013-05-26 20:33:00,66.0,40.0,28.84,SSW,204,1.0,3.0,38,0.00,,,0.00,,2013-05-27 03:33:00,
2013-05-26 20:42:00,66.0,40.0,28.84,SSW,204,1.0,3.0,38,0.00,,,0.00,,2013-05-27 03:42:00,
2013-05-26 20:53:00,65.0,40.0,28.84,SW,220,1.0,3.0,40,0.00,,,0.00,,2013-05-27 03:53:00,
2013-05-26 21:02:00,64.0,40.0,28.85,SW,221,0.0,1.0,41,0.00,,,0.00,,2013-05-27 04:02:00,
2013-05-26 21:12:00,64.0,40.0,28.85,SW,221,0.0,1.0,41,0.00,,,0.00,,2013-05-27 04:12:00,
2013-05-26 21:22:00,63.0,40.0,28.86,SW,221,0.0,1.0,43,0.00,,,0.00,,2013-05-27 04:22:00,
2013-05-26 21:33:00,62.0,40.0,28.87,WNW,294,0.0,4.0,44,0.00,,,0.00,,2013-05-27 04:33:00,
2013-05-26 21:42:00,61.0,40.0,28.87,WNW,296,0.0,2.0,45,0.00,,,0.00,,2013-05-27 04:42:00,
2013-05-26 21:52:00,61.0,40.0,28.87,WNW,296,0.0,2.0,45,0.00,,,0.00,,2013-05-27 04:52:00,
2013-05-26 22:02:00,60.0,41.0,28.88,WNW,296,0.0,0.0,49,0.00,,,0.00,,2013-05-27 05:02:00,
2013-05-26 22:12:00,60.0,41.0,28.88,WNW,296,0.0,0.0,49,0.00,,,0.00,,2013-05-27 05:12:00,
2013-05-26 22:22:00,60.0,41.0,28.88,NW,305,1.0,8.0,50,0.00,,,0.00,,2013-05-27 05:22:00,
2013-05-26 22:32:00,59.0,41.0,28.88,WNW,303,0.0,1.0,51,0.00,,,0.00,,2013-05-27 05:32:00,
2013-05-26 22:42:00,59.0,41.0,28.88,WNW,303,0.0,1.0,51,0.00,,,0.00,,2013-05-27 05:42:00,
2013-05-26 22:52:00,59.0,42.0,28.88,NW,320,0.0,5.0,53,0.00,,,0.00,,2013-05-27 05:52:00,
2013-05-26 23:01:00,59.0,43.0,28.88,NNW,327,0.0,3.0,55,0.00,,,0.00,,2013-05-27 06:01:00,
2013-05-26 23:11:00,59.0,43.0,28.88,NNW,327,0.0,3.0,55,0.00,,,0.00,,2013-05-27 06:11:00,
2013-05-26 23:21:00,58.0,42.0,28.88,NW,320,0.0,1.0,55,0.00,,,0.00,,2013-05-27 06:21:00,
2013-05-26 23:32:00,56.0,41.0,28.88,NW,320,0.0,1.0,57,0.00,,,0.00,,2013-05-27 06:32:00,
2013-05-26 23:41:00,56.0,41.0,28.88,NW,320,0.0,1.0,57,0.00,,,0.00,,2013-05-27 06:41:00,
2013-05-26 23:52:00,56.0,42.0,28.88,NW,320,0.0,1.0,60,0.00,,,0.00,,2013-05-27 06:52:00,